• In Germany
  • List of Countries
  • For 7 days
  • Water Temperature
  • Satellite Maps
  • Weather Map
  • Weather Widgets
  • user-avatar
    Login

    Hourly Weather Albany

    Today, 20 August, Sunday

    Time Temperature Precipitation Wind Pressure Humidity
    00:00 +11°C° 0.3 mm 9 mps 759 mmHg 90%
    01:00 +11°C° 0.3 mm 9 mps 759 mmHg 89%
    02:00 +11°C° 0 mm 9 mps 760 mmHg 89%
    03:00 +11°C° 0.1 mm 9 mps 760 mmHg 89%
    04:00 +11°C° 0.1 mm 8 mps 760 mmHg 88%
    05:00 +11°C° 0.1 mm 7 mps 761 mmHg 87%
    06:00 +10°C° 0.1 mm 7 mps 761 mmHg 87%
    07:00 +10°C° 0.1 mm 6 mps 762 mmHg 86%
    08:00 +10°C° 0.1 mm 6 mps 762 mmHg 86%
    09:00 +11°C° 0.1 mm 6 mps 762 mmHg 82%
    10:00 +13°C° 0.1 mm 5 mps 763 mmHg 78%
    11:00 +13°C° 0.1 mm 5 mps 763 mmHg 75%
    12:00 +13°C° 0.1 mm 5 mps 762 mmHg 73%
    13:00 +14°C° 0.1 mm 5 mps 762 mmHg 71%
    14:00 +14°C° 0.1 mm 4 mps 762 mmHg 70%
    15:00 +14°C° 0.1 mm 4 mps 762 mmHg 72%
    16:00 +13°C° 0.1 mm 4 mps 762 mmHg 75%
    17:00 +13°C° 0.1 mm 4 mps 762 mmHg 78%
    18:00 +12°C° 0.1 mm 4 mps 762 mmHg 80%
    19:00 +12°C° 0.1 mm 4 mps 762 mmHg 83%
    20:00 +11°C° 0.1 mm 4 mps 762 mmHg 85%
    21:00 +11°C° 0.1 mm 4 mps 762 mmHg 86%
    22:00 +11°C° 0.1 mm 4 mps 762 mmHg 87%
    23:00 +10°C° 0.1 mm 5 mps 762 mmHg 88%

    Tomorrow, 21 August, Monday

    Time Temperature Precipitation Wind Pressure Humidity
    00:00 +10°C° 0.1 mm 5 mps 762 mmHg 87%
    01:00 +10°C° 0.1 mm 5 mps 761 mmHg 87%
    02:00 +10°C° 0.1 mm 5 mps 761 mmHg 86%
    03:00 +10°C° 0.1 mm 5 mps 761 mmHg 86%
    04:00 +9°C° 0.1 mm 5 mps 761 mmHg 87%
    05:00 +9°C° 0.1 mm 6 mps 761 mmHg 87%
    06:00 +9°C° 0.1 mm 6 mps 761 mmHg 87%
    07:00 +9°C° 0.1 mm 6 mps 761 mmHg 86%
    08:00 +10°C° 0.1 mm 6 mps 761 mmHg 86%
    09:00 +11°C° 0 mm 6 mps 761 mmHg 78%
    10:00 +13°C° 0 mm 6 mps 761 mmHg 70%
    11:00 +15°C° 0 mm 6 mps 761 mmHg 62%
    12:00 +15°C° 0.1 mm 6 mps 760 mmHg 61%
    13:00 +15°C° 0.1 mm 6 mps 760 mmHg 61%
    14:00 +15°C° 0.1 mm 6 mps 759 mmHg 60%
    15:00 +15°C° 0.1 mm 5 mps 759 mmHg 63%
    16:00 +14°C° 0.1 mm 5 mps 759 mmHg 65%
    17:00 +14°C° 0.1 mm 5 mps 759 mmHg 67%
    18:00 +13°C° 0.1 mm 5 mps 759 mmHg 70%
    19:00 +12°C° 0.1 mm 5 mps 760 mmHg 73%
    20:00 +12°C° 0.1 mm 5 mps 760 mmHg 76%
    21:00 +10°C° 0.1 mm 5 mps 760 mmHg 78%
    22:00 +10°C° 0.1 mm 5 mps 760 mmHg 80%
    23:00 +10°C° 0.1 mm 5 mps 760 mmHg 83%

    Day after tomorrow, 22 August, Tuesday

    Time Temperature Precipitation Wind Pressure Humidity
    00:00 +9°C° 0.1 mm 6 mps 759 mmHg 84%
    01:00 +9°C° 0.1 mm 6 mps 759 mmHg 86%
    02:00 +9°C° 0.1 mm 6 mps 759 mmHg 88%
    03:00 +8°C° 0 mm 6 mps 759 mmHg 88%
    04:00 +8°C° 0 mm 6 mps 759 mmHg 88%
    05:00 +8°C° 0 mm 6 mps 759 mmHg 88%
    06:00 +9°C° 0.2 mm 6 mps 759 mmHg 88%
    07:00 +9°C° 0.2 mm 5 mps 760 mmHg 87%
    08:00 +10°C° 0.2 mm 5 mps 760 mmHg 87%
    09:00 +10°C° 0.2 mm 5 mps 761 mmHg 87%
    10:00 +10°C° 0.2 mm 5 mps 761 mmHg 87%
    11:00 +12°C° 0.2 mm 4 mps 761 mmHg 87%
    12:00 +12°C° 0 mm 4 mps 761 mmHg 83%
    13:00 +12°C° 0 mm 4 mps 761 mmHg 79%
    14:00 +13°C° 0 mm 4 mps 761 mmHg 75%
    15:00 +12°C° 0 mm 4 mps 762 mmHg 74%
    16:00 +12°C° 0 mm 3 mps 762 mmHg 72%
    17:00 +12°C° 0 mm 3 mps 763 mmHg 71%
    18:00 +11°C° 0 mm 3 mps 763 mmHg 71%
    19:00 +12°C° 0 mm 2 mps 764 mmHg 70%
    20:00 +10°C° 0 mm 2 mps 765 mmHg 70%
    21:00 +11°C° 0 mm 1 mps 765 mmHg 71%
    22:00 +10°C° 0 mm 1 mps 765 mmHg 72%
    23:00 +9°C° 0 mm 0 mps 766 mmHg 73%

    23 August, Wednesday

    Time Temperature Precipitation Wind Pressure Humidity
    00:00 +9°C° 0 mm 1 mps 766 mmHg 75%
    01:00 +8°C° 0 mm 1 mps 766 mmHg 78%
    02:00 +8°C° 0 mm 1 mps 766 mmHg 80%
    03:00 +8°C° 0 mm 1 mps 766 mmHg 81%
    04:00 +8°C° 0 mm 1 mps 766 mmHg 82%
    05:00 +7°C° 0 mm 1 mps 766 mmHg 84%
    06:00 +8°C° 0 mm 1 mps 767 mmHg 82%
    07:00 +9°C° 0 mm 1 mps 767 mmHg 80%
    08:00 +10°C° 0 mm 1 mps 768 mmHg 78%
    09:00 +12°C° 0 mm 1 mps 768 mmHg 71%
    10:00 +13°C° 0 mm 1 mps 768 mmHg 65%
    11:00 +15°C° 0 mm 1 mps 768 mmHg 58%
    12:00 +15°C° 0 mm 1 mps 767 mmHg 58%
    13:00 +15°C° 0 mm 1 mps 767 mmHg 59%
    14:00 +15°C° 0 mm 1 mps 767 mmHg 59%
    15:00 +14°C° 0 mm 1 mps 767 mmHg 62%
    16:00 +14°C° 0 mm 1 mps 767 mmHg 65%
    17:00 +13°C° 0 mm 1 mps 767 mmHg 68%
    18:00 +12°C° 0 mm 1 mps 768 mmHg 72%
    19:00 +11°C° 0 mm 1 mps 768 mmHg 75%
    20:00 +10°C° 0 mm 1 mps 769 mmHg 78%
    21:00 +9°C° 0 mm 1 mps 769 mmHg 80%
    22:00 +9°C° 0 mm 1 mps 769 mmHg 82%
    23:00 +9°C° 0 mm 1 mps 768 mmHg 84%

    24 August, Thursday

    Time Temperature Precipitation Wind Pressure Humidity
    00:00 +8°C° 0 mm 1 mps 768 mmHg 85%
    01:00 +7°C° 0 mm 2 mps 768 mmHg 86%
    02:00 +7°C° 0 mm 2 mps 768 mmHg 88%
    03:00 +6°C° 0 mm 2 mps 768 mmHg 88%
    04:00 +6°C° 0 mm 2 mps 768 mmHg 88%
    05:00 +6°C° 0 mm 2 mps 768 mmHg 88%
    06:00 +7°C° 0 mm 2 mps 768 mmHg 85%
    07:00 +8°C° 0 mm 2 mps 768 mmHg 83%
    08:00 +8°C° 0 mm 2 mps 769 mmHg 80%
    09:00 +12°C° 0 mm 2 mps 768 mmHg 73%
    10:00 +14°C° 0 mm 2 mps 768 mmHg 66%
    11:00 +16°C° 0 mm 2 mps 768 mmHg 59%
    12:00 +16°C° 0 mm 2 mps 768 mmHg 59%
    13:00 +16°C° 0 mm 2 mps 767 mmHg 58%
    14:00 +16°C° 0 mm 3 mps 767 mmHg 58%
    15:00 +16°C° 0 mm 3 mps 767 mmHg 61%
    16:00 +14°C° 0 mm 3 mps 767 mmHg 65%
    17:00 +13°C° 0 mm 3 mps 767 mmHg 69%
    18:00 +12°C° 0 mm 3 mps 768 mmHg 72%
    19:00 +12°C° 0 mm 2 mps 768 mmHg 75%
    20:00 +10°C° 0 mm 2 mps 769 mmHg 78%
    21:00 +10°C° 0 mm 2 mps 769 mmHg 79%
    22:00 +11°C° 0 mm 1 mps 769 mmHg 80%
    23:00 +10°C° 0 mm 1 mps 769 mmHg 82%

    25 August, Friday

    Time Temperature Precipitation Wind Pressure Humidity
    00:00 +10°C° 0 mm 1 mps 769 mmHg 82%
    01:00 +10°C° 0 mm 1 mps 769 mmHg 83%
    02:00 +10°C° 0 mm 1 mps 769 mmHg 83%
    03:00 +10°C° 0 mm 1 mps 769 mmHg 84%
    04:00 +10°C° 0 mm 1 mps 769 mmHg 85%
    05:00 +10°C° 0 mm 1 mps 769 mmHg 85%
    06:00 +11°C° 0 mm 1 mps 769 mmHg 84%
    07:00 +12°C° 0 mm 1 mps 769 mmHg 83%
    08:00 +12°C° 0 mm 1 mps 769 mmHg 81%
    09:00 +14°C° 0.1 mm 2 mps 770 mmHg 79%
    10:00 +14°C° 0.1 mm 3 mps 770 mmHg 76%
    11:00 +15°C° 0.1 mm 4 mps 770 mmHg 73%
    12:00 +15°C° 0.2 mm 4 mps 769 mmHg 74%
    13:00 +15°C° 0.2 mm 4 mps 769 mmHg 74%
    14:00 +15°C° 0.2 mm 4 mps 769 mmHg 75%
    15:00 +15°C° 0.2 mm 4 mps 769 mmHg 76%
    16:00 +14°C° 0.2 mm 5 mps 769 mmHg 78%
    17:00 +14°C° 0.2 mm 5 mps 769 mmHg 79%
    18:00 +13°C° 0.1 mm 5 mps 769 mmHg 82%
    19:00 +12°C° 0.1 mm 4 mps 769 mmHg 85%
    20:00 +11°C° 0.1 mm 4 mps 770 mmHg 88%
    21:00 +11°C° 0.1 mm 4 mps 770 mmHg 89%
    22:00 +11°C° 0.1 mm 4 mps 770 mmHg 90%
    23:00 +10°C° 0.1 mm 4 mps 770 mmHg 90%
    Show more